DW5212 Weather Reports


time (UTC)temp
F
wind
direction
speed
knots
gust
knots
rain 1hr
in
rain 24hr
in
rain mn
in
humidity
%
barometer
mb
20260510052011 65 113 0.0 0.0 0.00 0.49 0.00 95 1012.8
20260510051011 65 113 0.0 0.0 0.00 0.49 0.00 95 1012.7
20260510050510 65 113 0.0 0.0 0.00 0.49 0.00 95 1012.6
20260510050010 65 113 0.0 0.0 0.00 0.49 0.49 95 1012.7
20260510045507 65 113 0.0 0.0 0.00 0.49 0.49 95 1012.6
20260510045010 65 113 0.0 0.0 0.00 0.49 0.49 95 1012.8
20260510044009 65 128 0.0 0.0 0.00 0.49 0.49 95 1012.7
20260510043509 65 128 0.0 0.0 0.00 0.49 0.49 95 1012.8
20260510043010 65 128 0.0 0.0 0.00 0.49 0.49 95 1012.9
20260510042010 65 128 0.0 0.0 0.00 0.49 0.49 95 1012.8
20260510041508 66 128 0.0 0.0 0.00 0.49 0.49 95 1012.8
20260510041008 66 128 0.0 0.0 0.00 0.49 0.49 95 1012.8
20260510040507 66 128 0.0 0.0 0.00 0.49 0.49 95 1012.8
20260510040010 66 128 0.0 0.0 0.00 0.49 0.49 95 1012.8
20260510035008 66 144 0.0 0.0 0.00 0.49 0.49 95 1012.9
20260510034508 66 144 0.0 0.0 0.00 0.49 0.49 95 1013.0
20260510034010 66 144 0.0 2.6 0.00 0.49 0.49 95 1013.0
20260510033011 66 196 0.0 2.6 0.00 0.49 0.49 95 1012.9
20260510032508 65 153 0.0 2.6 0.00 0.49 0.49 95 1012.8
20260510032008 65 128 0.0 2.6 0.00 0.49 0.49 94 1012.7
20260510031508 65 128 0.0 2.6 0.00 0.49 0.49 94 1012.7
20260510031008 65 58 0.0 0.0 0.00 0.49 0.49 94 1012.6
20260510030508 65 75 0.0 0.0 0.00 0.49 0.49 94 1012.5
20260510030010 65 75 0.0 0.0 0.00 0.49 0.49 94 1012.4
20260510025507 65 75 0.0 0.0 0.00 0.49 0.49 94 1012.4
20260510025012 65 74 0.0 0.0 0.00 0.49 0.49 94 1012.4
20260510024010 66 75 0.0 0.0 0.00 0.49 0.49 94 1012.5
20260510023509 66 75 0.0 0.0 0.00 0.49 0.49 94 1012.4
20260510023010 66 75 0.0 0.0 0.00 0.49 0.49 94 1012.4
20260510022509 66 75 0.0 0.0 0.00 0.49 0.49 94 1012.6
20260510022009 66 75 0.0 0.0 0.00 0.49 0.49 94 1012.4
20260510021010 66 75 0.0 0.0 0.00 0.49 0.49 94 1012.3
20260510020508 66 75 0.0 0.0 0.00 0.49 0.49 94 1012.2
20260510020011 67 75 0.0 0.0 0.00 0.49 0.49 94 1012.1
20260510015507 67 75 0.0 0.0 0.00 0.49 0.49 94 1012.2
20260510015009 67 75 0.0 0.0 0.00 0.49 0.49 94 1012.1
20260510014508 67 75 0.0 0.0 0.00 0.49 0.49 93 1012.1
20260510014010 67 75 0.0 0.0 0.00 0.49 0.49 93 1011.9
20260510013509 67 75 0.0 0.0 0.00 0.49 0.49 93 1011.9
20260510013009 67 74 0.0 0.0 0.00 0.49 0.49 93 1011.8
20260510012507 67 75 0.0 0.0 0.00 0.49 0.49 93 1011.6
20260510012008 67 75 0.0 0.0 0.00 0.49 0.49 93 1011.4
20260510011508 67 75 0.0 1.7 0.00 0.49 0.49 93 1011.4
20260510011009 67 75 0.0 1.7 0.00 0.49 0.49 93 1011.5
20260510010508 68 75 0.0 0.9 0.00 0.49 0.49 93 1011.5
20260510005507 68 101 0.0 0.0 0.00 0.49 0.49 93 1011.1
20260510005008 68 101 0.0 0.9 0.00 0.49 0.49 93 1011.2
20260510004508 68 101 0.0 1.7 0.00 0.49 0.49 93 1011.1
20260510004009 68 101 0.0 1.7 0.00 0.49 0.49 93 1011.2
20260510003507 68 105 0.0 1.7 0.00 0.49 0.49 93 1011.3
20260510003008 68 114 0.0 0.0 0.00 0.49 0.49 93 1011.0
20260510002508 68 114 0.0 0.0 0.00 0.49 0.49 93 1011.1
20260510002009 68 199 0.0 0.0 0.00 0.49 0.49 93 1011.2
20260510001507 68 199 0.0 0.0 0.00 0.49 0.49 93 1011.2
20260510001008 68 199 0.0 0.0 0.00 0.49 0.49 93 1011.2
20260510000507 68 261 0.0 0.0 0.00 0.49 0.49 93 1011.4
20260510000009 68 261 0.0 0.0 0.00 0.49 0.49 93 1011.5
20260509235507 68 261 0.0 0.0 0.00 0.49 0.49 92 1011.2
20260509235008 68 13 0.0 0.0 0.00 0.49 0.49 92 1011.2
20260509234508 68 13 0.0 0.0 0.00 0.49 0.49 92 1010.9
20260509234008 68 124 0.0 0.0 0.00 0.49 0.49 92 1010.6
20260509233009 68 141 0.0 0.9 0.00 0.49 0.49 91 1011.1
20260509232508 69 141 0.9 1.7 0.00 0.49 0.49 91 1011.4
20260509232009 69 141 0.9 2.6 0.00 0.49 0.49 91 1011.3
20260509231509 69 267 0.9 3.5 0.00 0.49 0.49 91 1011.3
20260509231009 69 161 1.7 3.5 0.00 0.49 0.49 91 1011.1
20260509230508 69 170 0.9 3.5 0.00 0.49 0.49 90 1011.2
20260509230013 69 253 1.7 7.0 0.00 0.49 0.49 91 1011.1
20260509225509 69 196 0.9 7.0 0.00 0.49 0.49 90 1011.0
20260509224510 69 219 0.9 2.6 0.00 0.49 0.49 91 1011.2
20260509224010 69 159 0.9 2.6 0.00 0.49 0.49 92 1011.2
20260509223509 69 161 0.9 2.6 0.00 0.49 0.49 92 1011.1
20260509223010 70 261 0.9 3.5 0.00 0.49 0.49 92 1011.2
20260509222509 69 197 0.9 7.0 0.00 0.49 0.49 91 1011.1
20260509222012 70 212 0.9 7.0 0.00 0.49 0.49 92 1011.2
20260509221510 70 126 0.0 1.7 0.00 0.49 0.49 92 1011.0
20260509221011 70 242 0.0 1.7 0.00 0.49 0.49 92 1011.0
20260509220012 70 98 0.0 2.6 0.00 0.49 0.49 92 1010.9
20260509215507 70 88 0.9 3.5 0.00 0.49 0.49 91 1010.8
20260509215009 70 88 0.0 3.5 0.00 0.49 0.49 91 1010.6
20260509214509 70 205 0.0 3.5 0.00 0.49 0.49 91 1011.0
20260509214009 70 130 0.0 1.7 0.00 0.49 0.49 92 1010.9
20260509213508 70 130 0.0 1.7 0.00 0.49 0.49 92 1010.9
20260509212508 70 86 0.0 0.0 0.00 0.49 0.49 93 1011.0
20260509212009 70 86 0.0 0.0 0.00 0.49 0.49 93 1011.0
20260509211508 70 93 0.0 0.0 0.00 0.49 0.49 93 1010.9
20260509211010 70 93 0.0 1.7 0.00 0.49 0.49 92 1011.1
20260509210508 70 88 0.9 3.5 0.00 0.49 0.49 92 1011.0
20260509205508 70 77 0.0 1.7 0.00 0.49 0.49 93 1011.0
20260509205008 70 108 0.0 0.0 0.00 0.49 0.49 93 1010.9
20260509204508 70 111 0.0 0.0 0.01 0.49 0.49 93 1011.0
20260509204008 70 74 0.0 0.0 0.02 0.49 0.49 93 1011.1
20260509203011 70 86 0.0 0.0 0.05 0.49 0.49 93 1011.2
20260509202508 70 104 0.0 0.0 0.05 0.49 0.49 93 1011.2
20260509202008 70 120 0.0 0.0 0.05 0.49 0.49 93 1011.2
20260509201508 70 119 0.0 1.7 0.05 0.49 0.49 93 1011.2
20260509201008 70 120 0.0 2.6 0.05 0.49 0.49 92 1011.3
20260509200508 70 106 0.0 1.7 0.05 0.49 0.49 92 1011.3
20260509200012 70 355 0.0 1.7 0.05 0.49 0.49 92 1011.3
20260509195508 70 355 0.0 1.7 0.05 0.49 0.49 91 1011.3
20260509195009 70 17 0.9 4.3 0.05 0.49 0.49 90 1011.2
20260509194509 71 98 0.9 4.3 0.04 0.48 0.48 90 1011.2
20260509194009 71 111 0.9 3.5 0.03 0.47 0.47 89 1011.2
20260509193508 71 177 0.9 3.5 0.02 0.46 0.46 90 1011.3
20260509193009 71 98 0.9 3.5 0.00 0.44 0.44 89 1011.2
20260509192507 71 108 0.0 3.5 0.00 0.44 0.44 89 1011.2
20260509192009 71 46 0.0 0.0 0.00 0.44 0.44 89 1011.1
20260509191008 71 74 0.0 0.0 0.00 0.44 0.44 89 1011.0
20260509190508 72 62 0.0 0.0 0.00 0.44 0.44 90 1011.1
20260509190010 72 81 0.0 0.0 0.00 0.44 0.44 90 1011.2
20260509185008 72 79 0.0 0.0 0.00 0.44 0.44 90 1011.1
20260509184508 72 57 0.0 0.0 0.00 0.44 0.44 90 1011.1
20260509183507 72 120 0.0 0.0 0.00 0.44 0.44 89 1011.0
20260509183009 72 120 0.0 0.0 0.00 0.44 0.44 89 1011.1
20260509182009 72 124 0.0 0.0 0.00 0.44 0.44 89 1011.1
20260509181509 72 137 0.0 0.0 0.00 0.44 0.44 89 1011.1
20260509181008 72 134 0.0 0.0 0.00 0.44 0.44 89 1011.1
20260509180508 72 99 0.0 0.0 0.00 0.44 0.44 90 1011.1
20260509180009 72 80 0.0 0.0 0.00 0.44 0.44 90 1011.3
20260509175508 72 81 0.0 0.0 0.00 0.44 0.44 89 1011.2
20260509175008 72 81 0.0 0.0 0.00 0.44 0.44 90 1011.4
20260509174507 72 82 0.0 0.0 0.00 0.44 0.44 90 1011.4
20260509174008 73 93 0.0 0.0 0.00 0.44 0.44 90 1011.4
20260509173506 73 110 0.0 0.0 0.00 0.44 0.44 90 1011.3
20260509173009 73 59 0.0 0.0 0.00 0.44 0.44 91 1011.4
20260509172508 72 63 0.0 0.0 0.00 0.44 0.44 91 1011.5
20260509171509 72 166 0.0 0.0 0.00 0.44 0.44 91 1011.7
20260509171008 72 102 0.0 0.0 0.00 0.44 0.44 92 1011.7
20260509170508 71 105 0.0 0.0 0.00 0.44 0.44 92 1011.7
20260509170011 71 108 0.0 0.0 0.00 0.44 0.44 92 1011.7
20260509165506 71 76 0.0 0.0 0.00 0.47 0.44 93 1011.9
20260509165009 71 72 0.0 0.0 0.00 0.47 0.44 93 1012.0
20260509164509 71 72 0.0 0.0 0.00 0.47 0.44 92 1012.0
20260509164009 71 72 0.0 0.0 0.00 0.47 0.44 92 1012.1
20260509163506 71 59 0.0 0.0 0.00 0.47 0.44 92 1012.0
20260509162507 71 54 0.0 0.0 0.00 0.47 0.44 93 1011.9
20260509162009 70 69 0.0 0.0 0.00 0.47 0.44 93 1012.0
20260509161509 70 69 0.0 0.0 0.00 0.47 0.44 94 1011.8
20260509161011 70 70 0.0 0.0 0.00 0.47 0.44 94 1011.9
20260509155506 69 84 0.0 0.0 0.00 0.57 0.44 94 1011.8
20260509154509 69 96 0.0 0.0 0.00 0.57 0.44 94 1011.7
20260509154008 69 96 0.0 0.0 0.00 0.57 0.44 94 1011.5
20260509153508 69 117 0.0 0.0 0.00 0.57 0.44 95 1011.3
20260509153010 69 117 0.0 0.0 0.00 0.57 0.44 95 1011.4
20260509152508 69 116 0.0 0.0 0.00 0.57 0.44 95 1011.3
20260509151508 68 121 0.0 0.0 0.00 0.57 0.44 95 1011.2
20260509151009 68 127 0.0 0.0 0.00 0.57 0.44 95 1011.2
20260509150010 67 127 0.0 0.0 0.00 0.57 0.44 96 1011.2
20260509145506 67 133 0.0 0.0 0.00 0.57 0.44 96 1011.3
20260509145008 67 134 0.0 0.0 0.00 0.57 0.44 96 1011.2
20260509144508 66 134 0.0 0.0 0.00 0.57 0.44 96 1011.1
20260509144007 66 134 0.0 0.0 0.00 0.57 0.44 96 1011.3
20260509143508 66 136 0.0 0.0 0.00 0.57 0.44 96 1011.4
20260509143009 66 137 0.0 0.0 0.00 0.57 0.44 96 1011.5
20260509142506 66 140 0.0 0.0 0.00 0.57 0.44 96 1011.6
20260509142008 66 142 0.0 0.0 0.00 0.57 0.44 96 1011.5
20260509141508 65 141 0.0 0.0 0.00 0.57 0.44 96 1011.6
20260509141010 65 157 0.0 0.0 0.00 0.57 0.44 96 1011.6
20260509140508 65 157 0.0 0.0 0.00 0.57 0.44 96 1011.6
20260509140010 65 157 0.0 0.0 0.00 0.57 0.44 96 1011.5
20260509135507 65 156 0.0 0.0 0.00 0.57 0.44 96 1011.5
20260509135009 65 156 0.0 0.0 0.00 0.57 0.44 96 1011.5
20260509134508 64 162 0.0 0.0 0.00 0.57 0.44 96 1011.6
20260509133506 64 165 0.0 0.0 0.00 0.57 0.44 96 1011.8
20260509133008 64 170 0.0 0.0 0.00 0.57 0.44 96 1011.8
20260509132507 64 170 0.0 0.0 0.00 0.57 0.44 96 1011.8
20260509132008 64 170 0.0 0.0 0.00 0.57 0.44 96 1011.5
20260509131508 64 170 0.0 0.0 0.00 0.57 0.44 96 1011.7
20260509130506 64 170 0.0 0.0 0.00 0.57 0.44 96 1011.6
20260509125006 64 170 0.0 0.0 0.00 0.57 0.44 95 1011.5
20260509124506 64 170 0.0 0.0 0.00 0.57 0.44 95 1011.3
20260509124007 64 170 0.0 0.0 0.00 0.57 0.44 95 1011.3
20260509123505 64 170 0.0 0.0 0.00 0.57 0.44 95 1011.4
20260509122506 64 170 0.0 0.0 0.00 0.57 0.44 95 1011.3
20260509122007 63 170 0.0 0.0 0.00 0.57 0.44 95 1011.3
20260509121506 63 170 0.0 0.0 0.00 0.57 0.44 95 1011.3
20260509121006 63 170 0.0 0.0 0.00 0.57 0.44 95 1011.3
20260509120506 63 170 0.0 0.0 0.00 0.57 0.44 95 1011.3
20260509120009 63 170 0.0 0.0 0.00 0.57 0.44 95 1011.2
20260509115507 63 170 0.0 0.0 0.00 0.57 0.44 95 1011.3
20260509114508 63 170 0.0 0.0 0.00 0.57 0.44 95 1011.3
20260509114010 63 170 0.0 0.0 0.00 0.57 0.44 95 1011.1
20260509113508 63 170 0.0 0.0 0.00 0.57 0.44 95 1010.9
20260509113007 63 170 0.0 0.0 0.00 0.57 0.44 95 1010.8
20260509112507 63 170 0.0 0.0 0.00 0.57 0.44 95 1010.9
20260509112009 63 170 0.0 0.0 0.00 0.57 0.44 95 1010.7
20260509111507 63 170 0.0 0.0 0.00 0.57 0.44 95 1010.9
20260509111008 63 170 0.0 0.0 0.00 0.57 0.44 95 1010.8
20260509110506 63 169 0.0 0.0 0.00 0.57 0.44 95 1010.6
20260509110010 63 168 0.0 0.0 0.00 0.57 0.44 95 1010.5
20260509104507 63 169 0.0 0.0 0.00 0.57 0.44 95 1010.4
20260509104009 63 169 0.0 0.0 0.00 0.57 0.44 95 1010.2
20260509103507 63 141 0.0 0.0 0.00 0.57 0.44 95 1010.4
20260509103009 63 140 0.0 0.0 0.01 0.57 0.44 95 1010.3
20260509102507 63 141 0.0 0.0 0.01 0.57 0.44 94 1010.3
20260509102009 63 141 0.0 0.0 0.02 0.57 0.44 94 1010.4
20260509101508 63 141 0.0 0.0 0.06 0.57 0.44 94 1010.4
20260509101008 64 141 0.0 0.0 0.20 0.57 0.44 94 1010.7
20260509100507 64 141 0.0 0.0 0.30 0.57 0.44 94 1010.9
20260509100010 64 141 0.0 0.0 0.38 0.57 0.44 94 1010.7
20260509094509 64 140 0.0 0.0 0.44 0.57 0.44 94 1011.0
20260509094010 64 140 0.0 0.0 0.44 0.57 0.44 94 1011.2
20260509093508 64 140 0.0 0.0 0.44 0.57 0.44 94 1011.2
20260509093008 64 140 0.0 0.0 0.43 0.56 0.43 94 1011.6
20260509092507 64 140 0.0 0.0 0.43 0.56 0.43 94 1011.6
20260509092009 65 144 0.0 0.9 0.41 0.54 0.41 94 1011.7
20260509091508 65 144 0.0 2.6 0.35 0.48 0.35 93 1011.9
20260509090509 66 18 1.7 4.3 0.12 0.25 0.12 94 1012.4
20260509090014 66 24 2.6 5.2 0.05 0.18 0.05 94 1012.4
20260509085509 67 12 1.7 5.2 0.02 0.15 0.02 95 1012.3
20260509085008 67 19 0.0 3.5 0.00 0.13 0.00 95 1012.5
20260509084509 67 355 0.0 0.0 0.00 0.13 0.00 95 1012.2
20260509084007 67 229 0.0 0.0 0.00 0.13 0.00 95 1011.2
20260509083506 66 228 0.0 0.0 0.00 0.13 0.00 95 1011.2
20260509083007 66 228 0.0 0.0 0.00 0.13 0.00 94 1010.9
20260509082506 66 228 0.0 0.0 0.00 0.13 0.00 94 1010.7
20260509082007 66 228 0.0 0.0 0.00 0.13 0.00 94 1010.5
20260509081008 66 228 0.0 0.0 0.00 0.13 0.00 94 1010.2
20260509080507 66 232 0.0 0.0 0.00 0.13 0.00 94 1010.1
20260509075507 67 232 0.0 0.0 0.00 0.13 0.00 94 1009.9
20260509075008 67 212 0.0 0.0 0.00 0.13 0.00 94 1009.8
20260509074509 67 212 0.0 0.0 0.00 0.13 0.00 94 1010.1
20260509074009 67 212 0.0 0.0 0.00 0.13 0.00 94 1010.1
20260509073508 67 212 0.0 0.0 0.00 0.13 0.00 94 1010.1
20260509073010 67 212 0.0 0.0 0.00 0.13 0.00 94 1010.1
20260509072507 67 212 0.0 0.0 0.00 0.13 0.00 94 1010.2
20260509072009 67 212 0.0 0.0 0.00 0.13 0.00 94 1010.3
20260509071508 67 212 0.0 0.0 0.00 0.13 0.00 94 1010.3
20260509071010 67 212 0.0 0.0 0.00 0.13 0.00 94 1010.5
20260509065506 67 207 0.0 0.0 0.00 0.13 0.00 95 1010.8
20260509065007 67 207 0.0 0.0 0.00 0.13 0.00 95 1010.8
20260509064007 67 207 0.0 0.0 0.00 0.13 0.00 95 1011.1
20260509063507 67 207 0.0 0.0 0.00 0.13 0.00 95 1011.2
20260509063008 67 207 0.0 0.0 0.00 0.13 0.00 95 1011.2
20260509062505 67 207 0.0 0.0 0.00 0.13 0.00 94 1011.2
20260509062007 67 207 0.0 0.0 0.00 0.13 0.00 94 1011.4
20260509061507 67 207 0.0 0.0 0.00 0.13 0.00 94 1011.3
20260509061007 67 207 0.0 0.0 0.00 0.13 0.00 94 1011.5
20260509060508 67 207 0.0 0.0 0.00 0.13 0.00 94 1011.4
20260509060009 67 207 0.0 0.0 0.00 0.13 0.00 94 1011.5
20260509055507 67 207 0.0 0.0 0.00 0.13 0.00 94 1011.6
20260509054510 67 207 0.0 0.0 0.00 0.13 0.00 94 1011.6
20260509054008 67 207 0.0 0.0 0.00 0.13 0.00 94 1011.6
20260509053508 67 207 0.0 0.0 0.00 0.13 0.00 94 1011.6
20260509053009 67 207 0.0 0.0 0.00 0.13 0.00 94 1011.4
20260509052507 67 207 0.0 0.0 0.00 0.13 0.00 94 1011.4